Regional Weather Roundup
Issued by NWS Newport/Morehead, NC

Current Version | Previous Version | Graphics & Text | Print | Product List | Glossary On
Versions: 1 2 3 4 5 6 7 8 9 10 11 12 13 14 15 16 17 18 19 20 21 22 23 24 25 26 27 28 29 30 31 32 33 34 35 36 37 38 39 40 41 42 43 44 45 46 47 48 49 50
000 ASUS42 KMHX 210522 RWRMHX WEATHER ROUNDUP FOR EASTERN NORTH CAROLINA NATIONAL WEATHER SERVICE NEWPORT/MOREHEAD CITY NC 1200 AM EST SUN DEC 21 2014 NOTE: "FAIR" INDICATES FEW OR NO CLOUDS BELOW 12,000 FEET WITH NO SIGNIFICANT WEATHER AND/OR OBSTRUCTIONS TO VISIBILITY NCZ015>017-031-032-045>047-102-103-210600- NORTH COAST CITY SKY/WX TMP DP RH WIND PRES REMARKS EDENTON N/A 32 30 94 N3 30.28S ELIZABETH CITY CLEAR 39 30 70 N7 30.29S KITTY HAWK CLEAR 40 33 75 N5 30.25F MANTEO CLEAR 38 34 84 N3 30.27S $$ NCZ045>047-081-094-103-104-210600- CENTRAL COAST CITY SKY/WX TMP DP RH WIND PRES REMARKS FRISCO CLEAR 42 37 82 NE6 30.25F SWANQUARTER N/A 39 N/A N/A VRB1 30.24S $$ NCZ095-097-098-100-101-210600- SOUTHERN COAST CITY SKY/WX TMP DP RH WIND PRES REMARKS BEAUFORT CLOUDY 40 36 86 NE3 30.26F CEDAR ISLAND N/A 43 N/A N/A N12 30.30S JACKSONVILLE CLOUDY 38 36 92 N3 30.26F PINEY ISLAND PTCLDY 44 36 73 NE8 30.25F WILMINGTON CLOUDY 38 37 97 NE6 30.25F $$ NCZ011>013-027>030-043-044-078>080-089-090>093-098-210600- COASTAL PLAIN CITY SKY/WX TMP DP RH WIND PRES REMARKS AHOSKIE CLEAR 31 29 94 CALM 30.30S CLINTON CLEAR 35 35 100 CALM 30.27F FOG ELIZABETHTOWN CLOUDY 37 37 100 N3 30.26S FOG GOLDSBORO CLEAR 35 35 98 CALM 30.27S GREENVILLE PTCLDY 37 36 93 CALM 30.29R HAVELOCK MOCLDY 39 35 86 N6 30.27F KENANSVILLE CLEAR 31 31 100 CALM 30.28F FOG KINSTON PTCLDY 35 33 94 NW5 30.29R FOG NEW BERN CLEAR 38 34 85 N3 30.28F RICHLANDS CLOUDY 34 32 93 N3 30.26F ROCKY MOUNT CLOUDY 35 33 92 CALM 30.28F FOG WASHINGTON CLOUDY 38 33 82 CALM 30.28S WHITEVILLE CLOUDY 39 37 90 NE5 30.26R $$ AMZ130-135-150-152-154-156-158-170-250-252-270-ANZ085-086-088-633-658-670-210600- MARINE OBSERVATIONS STATION/POSITION TIME TEMP WIND PRES WAVE SWELL AIR SEA DIR/SP/G HT/PER HT/PER (UTC) (F) (DEG/KT/KT) (MB) (FT/S) (FT/S) CHESAPEAKE LIGHT 0500 39 350/ 10/ 11 1026.2 64 E VA BEACH 0500 43 54 360/ 10/ 14 1024.5 2/ 8 2/ 8 DUCK 0500 42 46 10/ 8/ 12 1024.1 2 E DUCK 0500 46 N/A 2/ 5 10 NE DUCK 0500 52 N/A 2/ 5 OREGON INLET 0500 42 48 360/ 6/ 9 1024.6 13E OREGON INLT 0500 52 N/A 3/ 6 HATTERAS CG 0500 45 50 20/ 8/ 11 1024.6 DIAMOND BUOY 0500 49 1024.2 3/ 4 17 S OCRACOKE NOT AVBL CAPE LOOKOUT 0500 44 20/ 12/ 14 1023.9 BEAUFORT LAB 0500 41 51 20/ 4/ 5 1023.3 30 SE NEW RIVER 0500 50 61 30/ 16/ 19 1023.9 3/ 4 2/10 5 SE WRIGHTSVLE NOT AVBL 225 S CAPE HAT 0420 66 71 90/ 19/ 21 1020.4 6/ 6 2/10 41 SE CHARLESTON 0500 62 68 30/ 19/ 23 1020.6 6/ 6 2/10 $$

USA.gov is the U.S. government's official web portal to all federal, state and local government web resources and services.